User: anonymous   Login
Location: Rodanthe
(35.5920°N, 75.4670°W)
Time: 23:59:08
(UTC-04:00)
Language:

ISS - Orbit

View from above orbital plane
View from above orbital plane
View from above satellite
View from above satellite

Ground track
Ground track

The orbit data is extracted from the following two-line orbital elements,

1 25544U 98067A   18144.15110373  .00016717  00000-0  10270-3 0  9017
2 25544  51.6387 138.5356 0003879 119.5056 240.6484 15.54086543 34777
Epoch (UTC): 24 May 2018 03:37:35
Eccentricity: 0.0003879
inclination: 51.6387°
perigee height: 402 km
apogee height: 407 km
right ascension of ascending node: 138.5356°
argument of perigee: 119.5056°
revolutions per day: 15.54086543
mean anomaly at epoch: 240.6484°
orbit number at epoch: 3477

The dashed part of the orbit path shows where the satellite is in the earth's shadow,  

DLR